This demonstration page uses our WeatherBlox Daily Observations layout. Learn more.

Hourly Observations for June 23, 2020

Temp ( °F °C ) Dew Point ( °F °C ) Humidity (%) Winds ( mph kmh ) Pressure ( in mb ) Visibility ( mi km ) Precip ( " mm )
12:54 am 00:54 Clear 64 17.8 59 15 84 84 NW 6 9 29.96 1015 10 16.0934 0 0
1:54 am 01:54 Clear 64 17.8 58 14.4 81 81 NNW 7 11 29.97 1015 10 16.0934 0 0
2:54 am 02:54 Clear 62 16.7 57 13.9 84 84 W 3 6 29.98 1015 10 16.0934 0 0
3:54 am 03:54 Clear 62 16.7 55 12.8 78 78 NW 6 9 29.98 1015 10 16.0934 0 0
4:54 am 04:54 Clear 61 16.1 54 12.2 78 78 NNW 6 9 29.99 1016 10 16.0934 0 0
5:54 am 05:54 Clear 57 13.9 53 11.7 87 87 Calm 30.02 1017 10 16.0934 0 0
6:54 am 06:54 Sunny 61 16.1 54 12.2 78 78 NW 6 9 30.02 1017 10 16.0934 0 0
7:54 am 07:54 Sunny 65 18.3 55 12.8 70 70 NW 8 13 30.02 1017 10 16.0934 0 0
8:54 am 08:54 Sunny 69 20.6 56 13.3 63 63 W 5 7 30.02 1017 10 16.0934 0 0
9:54 am 09:54 Sunny 73 22.8 54 12.2 51 51 NW 12 19 30.01 1016 10 16.0934 0 0
10:54 am 10:54 Sunny 75 23.9 55 12.8 50 50 NW 15 24 30 1016 10 16.0934 0 0
11:54 am 11:54 Mostly Sunny 77 25 54 12.2 45 45 N 14 22 29.99 1016 10 16.0934 0 0
12:54 pm 12:54 Sunny 79 26.1 55 12.8 44 44 N 8 13 29.99 1016 N/A 0 0
1:54 pm 13:54 Partly Cloudy 80 26.7 53 11.7 39 39 N 14 22 29.98 1015 10 16.0934 0 0
2:54 pm 14:54 Mostly Sunny 81 27.2 53 11.7 38 38 N 14 22 29.97 1015 10 16.0934 0 0
4:54 pm 16:54 Sunny 81 27.2 50 10 34 34 NNW 17 28 29.96 1014 10 16.0934 0 0
5:54 pm 17:54 Sunny 80 26.7 50 10 35 35 N 18 30 29.93 1014 10 16.0934 0 0
6:54 pm 18:54 Sunny 78 25.6 52 11.1 40 40 N 15 24 29.92 1013 10 16.0934 0 0
7:54 pm 19:54 Sunny 75 23.9 54 12.2 48 48 N 8 13 29.93 1014 10 16.0934 0 0
8:54 pm 20:54 Sunny 70 21.1 53 11.7 55 55 NNE 7 11 29.93 1014 10 16.0934 0 0
9:54 pm 21:54 Clear 64 17.8 54 12.2 70 70 N 6 9 29.96 1014 10 16.0934 0 0
10:54 pm 22:54 Clear 67 19.4 53 11.7 61 61 NW 3 6 29.97 1015 10 16.0934 0 0
11:54 pm 23:54 Clear 64 17.8 54 12.2 70 70 WSW 3 6 29.98 1015 10 16.0934 0 0

Powered by AerisWeather